    B53 Casal Lumbroso, Rome.  Observer D. Pivato.  0.19-m f/4.0 reflector + CCD.
    B96 Brixiis Observatory, Kruibeke.  Observer E. Bryssinck.  0.4-m f/3.8
        astrograph + CCD.
    C23 Olmen.  Observer A. Diepvens.  0.20-m f/9 refractor + CCD.
    D95 Kurihara.  Observer T. Takahashi.  0.15-m f/6.7 refractor + CCD.
    D96 Tzec Maun Observatory, Moorook.  Observers P. Concari, S. Foglia, G. Galli,
        M. Tombelli.  0.18-m f/2.8 Newtonian reflector + CCD.
    H10 Tzec Maun Observatory, Mayhill.  Observers S. Plaksa, S. Beck,
        E. Bryssinck.  0.18-m f/2.8 reflector + CCD, 0.18-m f/7.3 refractor + CCD,
        0.41-m f/9 Ritchey-Chretien + CCD.
    H47 Vicksburg.  Observer C. Bell.  0.3-m f/4.7 Schmidt-Cassegrain + CCD.
    J01 Observatorio Cielo Profundo, Oviedo.  Observer J. Gonzalez.  0.23-m f/10
        Schmidt-Cassegrain + CCD.
    J07 Observatorio SPAG Monfrague, Palazuelo-Empalme.  Observers A. Fernandez,
        M. A. Garcia.  Measurers J. Curto, J. I. Pascual, J. Temprano.  0.30-m
        f/3.6 reflector + CCD.
    J08 Observatorio Zonalunar, Puzol.  Observer A. Carreno.  Measurer J. Piqueras.
        0.20-m f/5 Newtonian reflector + CCD.
    J47 Observatorio Nazaret.  Observer G. Muler.  Measurers J. M. Ruiz, G. Muler.
        0.30-m Schmidt-Cassegrain + CCD.
    
    Orbital elements:
        P/2010 H2 (Vales)
    Epoch 2010 Mar. 25.0 TT = JDT 2455280.5
    T 2010 Mar. 6.59863 TT                                  MPC
    q   3.1079549            (2000.0)            P               Q
    n   0.13048009     Peri.  129.59688     -0.94935776     +0.22242209
    a   3.8498152      Node    64.29634     -0.30523409     -0.82038483
    e   0.1927002      Incl.   14.25808     +0.07451171     -0.52677998
    P   7.55
    Residuals in seconds of arc
    100416 106  0.2-  0.1-    100418 B96  0.1-  0.1+    100425 D95  0.7+  0.5-
    100416 106  0.2-  0.1-    100418 B96  0.2+  0.2-    100425 D95  0.4+  0.6-
    100416 106  0.2-  0.2-    100418 B96  0.2+  0.0     100425 379  0.5-  0.2-
    100416 106  0.2-  0.1-    100418 213  0.0   0.1+    100425 379  0.3+  0.0
    100416 H01  0.2-  0.1-    100418 J01  0.2-  0.1+    100425 379  1.0-  0.9+
    100416 H01  0.2-  0.1-    100418 510  0.2+  0.0     100425 900  0.2-  0.3-
    100416 H01  0.3-  0.1+    100418 204  0.1+  0.1+    100425 900  0.2-  0.4-
    100416 H01  0.3-  0.0     100418 510  0.1-  0.1-    100425 379  0.1-  0.1-
    100416 658  0.4-  0.3+    100418 510  0.2-  0.2-    100425 379  0.3+  1.5+
    100416 658  0.9-  0.3+    100418 J01  0.1-  0.0     100425 379  0.3-  0.4+
    100416 658  0.9+  0.3+    100418 J01  0.1-  0.0     100425 J51  0.1+  0.4-
    100416 850  0.1+  0.3+    100419 C10  0.1+  0.1+    100425 J51  0.1-  0.2-
    100416 850  0.0   0.3-    100419 C10  0.1+  0.1+    100425 213  0.3-  0.1-
    100416 850  0.1-  0.2+    100419 C10  0.2+  0.0     100425 213  0.1+  0.3-
    100416 850  0.4-  0.2-    100419 C10  0.2+  0.2+    100425 J51  0.1-  0.4-
    100416 H01  0.2-  0.2+    100419 C10  0.2+  0.2+    100425 213  0.3+  0.3-
    100416 850  0.0   0.2-    100419 C10  0.2+  0.1+    100426 945  0.4+  0.1+
    100416 850  0.2-  0.0     100419 160  0.0   0.3-    100426 945  0.3+  0.1-
    100416 H01  0.7-  0.1-    100419 C10  0.1+  0.2+    100426 945  0.7-  0.6-
    100416 E94  0.6-  0.0     100419 160  0.3+  0.1-    100426 945  1.2-  0.7-
    100416 850  0.2-  0.4-    100419 160  0.0   0.0     100426 945  0.2+  0.5-
    100416 E94  0.2+  0.3+    100419 B82  0.0   0.1+    100426 H10  0.0   0.4-
    100416 H01  0.1-  0.2+    100419 C10  0.2+  0.1+    100426 585  0.6+  0.3-
    100416 850  0.2+  0.1-    100419 B82  0.0   0.1+    100426 585  0.1-  0.3-
    100416 850  0.2-  0.0     100419 B82  0.0   0.1+    100426 585  0.1+  0.3+
    100416 E94  0.5-  0.6+    100419 B82  0.0   0.1+    100426 458  0.3-  0.1+
    100416 H01  0.3-  0.1-    100419 B82  0.1+  0.1+    100426 J01  0.1-  0.2+
    100416 H06  0.2-  0.1-    100419 B82  0.1-  0.1+    100426 458  0.1+  0.0
    100416 E94  0.2+  0.4+    100419 850  0.9+  0.2-    100426 J01  0.2+  0.2+
    100416 H06  0.2-  0.1-    100419 850  0.1+  0.0     100426 J01  0.2-  0.1+
    100416 H10  0.1-  0.2-    100419 H36  0.3-  0.1-    100427 213  0.2+  0.2+
    100416 E94  0.0   1.5+    100419 H36  0.1-  0.1-    100427 213  0.0   0.4+
    100416 H10  0.1-  0.0     100419 H36  0.5+  0.1-    100427 213  0.3+  0.5+
    100416 H06  0.2-  0.2-    100419 H10  0.0   0.3-    100427 J38  0.6+  0.4+
    100416 H10  0.1+  0.2+    100419 H10  0.0   0.0     100427 J38  0.1-  1.1+
    100416 H10  0.1+  0.1+    100419 H06  0.2-  0.1-    100427 J38  0.1+  1.3+
    100416 474  0.3+  0.2+    100419 H10  0.1-  0.1-    100428 H47  0.1+  0.1-
    100416 474  0.3+  0.1+    100419 H06  0.3-  0.1-    100428 H47  0.2-  1.0-
    100416 474  0.4+  0.1+    100419 H10  0.4+  0.3+    100428 H47  0.6+  0.4-
    100416 D96  0.6-  0.5+    100419 D95  0.5-  0.1+    100428 D96  0.3-  0.2+
    100416 D96  0.2+  0.0     100419 D95  0.4-  0.0     100428 D96  0.1+  0.1+
    100416 E10  0.1-  0.2+    100419 D95  0.4-  0.3-    100428 D96  0.0   0.2+
    100416 E10  0.1-  0.2+    100419 D95  0.4-  0.1-    100428 D96  0.2-  0.2-
    100416 E10  0.3-  0.5+    100419 415  0.1-  0.1-    100428 D96  0.1+  0.1-
    100416 D96  0.2-  0.5+    100419 415  0.0   0.1-    100428 C12  0.4+  0.4+
    100416 E10  0.1+  0.2+    100419 D93  0.1+  0.1+    100428 C12  1.0+  0.3+
    100416 E10  0.2+  0.1-    100419 D93  0.0   0.4+    100428 C12  1.0-  0.4+
    100416 D96  0.2-  0.5+    100419 D93  0.1+  0.1+    100428 213  0.6+  0.1+
    100416 D90  0.1+  0.1-    100419 D93  0.3+  0.2+    100428 213  0.3+  0.1+
    100416 D90  0.1+  0.1-    100419 D93  0.3+  0.2+    100428 213  0.4+  0.3+
    100416 D90  0.0   0.2-    100419 D96  0.2-  0.1-    100428 B75  1.6+  0.3-
    100416 D90  0.2+  0.1-    100419 D96  0.0   0.2-    100428 B75  0.3-  0.9-
    100416 D90  0.2+  0.1-    100419 D96  0.1-  0.1+    100428 B75  0.3-  1.1+
    100416 D90  0.0   0.1-    100419 D96  0.1-  0.1-    100429 D95  0.4+  0.2+
    100416 D90  0.1+  0.1-    100419 A17  0.4-  0.0     100429 D95  0.0   0.7-
    100416 D90  0.0   0.1-    100419 473  0.1-  0.2+    100429 D95  0.1+  0.9-
    100416 D90  0.0   0.4-    100419 473  0.1-  0.1+    100429 379  0.2+  0.6+
    100416 D90  0.1+  0.1-    100419 A17  0.3-  0.1-    100429 379  0.4+  0.8+
    100416 D90  0.1+  0.1-    100419 A77  0.0   0.1-    100429 379  0.3+  0.6+
    100416 D90  0.2+  0.1-    100419 A77  0.1-  0.2-    100429 349  0.1+  0.0
    100416 D96  0.1-  0.7-    100419 A77 (2.0+  3.6-)   100429 349  0.2+  0.1-
    100416 D90  0.1-  0.2-    100419 B49  0.3-  0.2-    100429 046  0.2+  0.1+
    100416 D96  0.0   0.5-    100419 235  0.4+  0.4+    100429 046  0.3+  0.1-
    100416 D90  0.2-  0.2-    100419 B49  0.0   0.3-    100429 046  0.2+  0.1+
    100416 D96  0.2-  0.2-    100419 B49  0.3-  0.1+    100429 046  0.3+  0.0
    100416 300  0.1-  0.2-    100419 473  0.1-  0.2-    100429 046  0.1-  0.0
    100416 D96  0.0   0.3+    100419 C23  0.3-  0.5+    100429 046  0.0   0.0
    100416 300  0.1-  0.2-    100419 473  0.2-  0.1-    100429 J07  0.3+  0.1+
    100416 300  0.0   0.2-    100419 114  2.0-  0.0     100429 J07  0.3+  0.0
    100416 114  0.3-  0.1-    100419 114  0.3-  0.3-    100429 J08  0.4+  1.2+
    100416 D96  0.0   0.3+    100419 114  0.1-  0.3-    100429 J07  0.3+  0.2+
    100416 D21  0.3+  0.6+    100419 213  0.1+  0.0     100429 B33  0.0   0.1-
    100416 114  0.0   0.2-    100419 C23  1.3-  0.4+    100429 B33  0.2+  0.1-
    100416 114  0.1-  0.1-    100419 114  0.3-  0.3-    100429 160  0.5+  0.1-
    100416 D96  0.0   0.6+    100419 213  0.4-  0.2+    100429 160  0.5+  0.0
    100416 300  0.0   0.3-    100419 114  0.3-  0.3-    100429 160  0.4+  0.3+
    100416 300  0.0   0.1-    100419 213  0.0   0.0     100430 D93  0.2+  1.4+
    100416 300  0.0   0.2-    100419 C23  0.4+  0.2+    100430 D93  0.0   0.9+
    100416 D21  0.2+  0.5+    100419 204  0.1-  0.0     100430 D93  0.1-  0.1+
    100416 D96  0.2-  0.3+    100419 587  0.2+  0.1+    100430 C23  0.3+  0.8+
    100416 D96  0.3-  0.2+    100419 B75  0.1+  0.0     100430 C23  0.1+  1.0+
    100416 D21  0.1+  0.6+    100419 B75  0.2-  0.0     100430 A79  0.6+  0.8+
    100416 188  0.3-  0.0     100419 B75  0.0   0.1+    100430 A79  0.6+  0.7+
    100416 B18  0.1-  0.0     100419 B66  0.3+  0.2+    100430 C23 (3.1-  0.0 )
    100416 B18  0.1-  0.1-    100419 587  0.2+  0.1-    100430 A79  0.5+  0.5+
    100416 B18  0.1-  0.2-    100419 106  0.1+  0.3-    100430 160  0.4+  0.1+
    100416 611  0.1-  0.3+    100419 204  0.2-  0.1+    100430 160  0.5+  0.2+
    100416 611  0.1+  0.1-    100419 587  0.0   0.0     100430 160  0.5+  0.4+
    100416 213  0.1+  0.2-    100419 106  0.0   0.0     100501 379  0.4+  0.2+
    100416 213  0.1+  0.0     100419 106  0.3-  0.0     100501 379  0.2+  0.6+
    100416 213  0.2-  0.1+    100419 106  0.5-  0.2-    100501 379  0.1+  0.8+
    100416 611  0.1+  0.2+    100420 204  0.1-  0.0     100501 379  0.3-  0.2+
    100416 213  0.1+  0.1+    100420 B66  0.4+  0.1+    100501 379  0.3-  0.1+
    100416 B96  0.1+  0.2+    100420 510  0.1+  0.3-    100501 367  0.0   0.1+
    100416 213  0.0   0.0     100420 510  0.0   0.0     100501 379  0.3+  0.1+
    100416 213  0.5+  0.1-    100420 510  0.0   0.0     100501 367  0.0   0.1-
    100416 213  0.5+  0.4+    100420 B82  0.1-  0.1+    100501 367  0.2+  0.1-
    100416 106  0.1-  0.2-    100420 B82  0.2+  0.1+    100501 372  0.2+  0.2+
    100416 A77  0.4+  0.0     100420 B82  0.2+  0.1+    100501 372  0.4+  0.1+
    100416 106  0.1-  0.2-    100420 H75  0.0   0.2-    100501 D93  0.8+  0.5+
    100416 B96  0.1+  0.0     100420 H75  0.1-  0.2-    100501 D93  0.3+  0.5+
    100416 J95  0.0   0.2+    100420 H75  0.0   0.0     100501 D93  0.4+  1.2+
    100416 A77  0.1+  0.0     100420 H45  0.1-  0.1-    100501 461  0.3+  0.3+
